Home   Weather   Townsville   Past weeks

Flag for Australia Past Weather in Townsville, Queensland, Australia — Yesterday and Last 2 Weeks

Now
75 °F

Passing clouds.


Feels Like: 75 °F
Forecast: 72 / 87 °F
Wind: 5 mph from Northwest

Location: Townsville Amo

Current Time: Sep 26, 2016 at 1:41:57 AM

Latest Report: Sep 26, 2016 at 1:00 AM


Visibility: N/A

Pressure: 29.86 "Hg

Humidity: 89%

Dew Point: 72 °F

Location of TownsvilleLocation

Past Weather in Townsville — Graph

°F

Townsville Temperature Yesterday

Maximum temperature yesterday: 86 °F (at 2:00 PM)
Minimum temperature yesterday: 75 °F (at 4:00 AM)
Average temperature yesterday: 80 °F

High & Low Weather Summary for the Past Weeks

 TemperatureHumidityPressure
High88 °F (Sep 22, 2:30 PM)100% (Sep 12, 9:00 AM)30.12 "Hg (Sep 12, 9:00 AM)
Low72 °F (Sep 11, 12:00 AM)39% (Sep 23, 8:00 AM)29.77 "Hg (Sep 24, 3:00 PM)
Average77 °F76%29.95 "Hg
* Reported Sep 11 12:00 AM — Sep 26 12:03 AM, Townsville, Weather by CustomWeather, © 2016

Note: Actual official high and low records may vary slightly from our data, if they occured in-between our weather recording intervals... More about our weather records

Advertising

Townsville Weather History for the Previous 24 Hours

Scroll right to see more
 ConditionsComfort  
Time TempWeatherWind HumidityBarometerVisibility
12:03 AM
Mon, Sep 26
75 °FPassing clouds.No wind89%29.89 "HgN/A
12:00 AM75 °FPassing clouds.No wind89%29.89 "HgN/A
11:00 PM
Sun, Sep 25
75 °FClear.6 mph89%29.89 "HgN/A
10:00 PM75 °FPassing clouds.5 mph89%29.89 "HgN/A
9:00 PM77 °FClear.6 mph83%29.86 "HgN/A
8:30 PM77 °FClear.8 mph83%29.86 "HgN/A
8:00 PM79 °FPassing clouds.9 mph79%29.86 "HgN/A
7:30 PM79 °FPassing clouds.10 mph79%29.83 "HgN/A
7:00 PM79 °FClear.9 mph79%29.83 "HgN/A
6:00 PM79 °FSunny.12 mph79%29.80 "HgN/A
5:00 PM82 °FSunny.13 mph70%29.77 "HgN/A
4:00 PM82 °FSunny.15 mph70%29.77 "HgN/A
3:00 PM84 °FSunny.14 mph66%29.77 "HgN/A
2:30 PM84 °FScattered clouds.14 mph66%29.77 "HgN/A
2:00 PM86 °FPartly sunny.13 mph62%29.77 "HgN/A
1:30 PM82 °FPartly sunny.15 mph70%29.80 "HgN/A
1:00 PM84 °FPartly sunny.15 mph66%29.80 "HgN/A
12:00 PM84 °FPassing clouds.10 mph62%29.83 "HgN/A
11:30 AM84 °FScattered clouds.12 mph62%29.86 "HgN/A
11:00 AM84 °FPassing clouds.10 mph62%29.86 "HgN/A
10:30 AM82 °FScattered clouds.10 mph66%29.86 "HgN/A
10:00 AM82 °FScattered clouds.10 mph66%29.86 "HgN/A
9:00 AM84 °FScattered clouds.10 mph62%29.86 "HgN/A
8:00 AM81 °FScattered clouds.7 mph74%29.86 "HgN/A
7:30 AM79 °FScattered clouds.7 mph79%29.86 "HgN/A
7:00 AM79 °FScattered clouds.6 mph84%29.86 "HgN/A
6:30 AM77 °FScattered clouds.6 mph89%29.83 "HgN/A
6:00 AM75 °FScattered clouds.6 mph89%29.83 "HgN/A
5:30 AM75 °FPassing clouds.5 mph89%29.80 "HgN/A
5:00 AM75 °FClear.3 mph89%29.80 "HgN/A
4:30 AM75 °FPassing clouds.6 mph89%29.80 "HgN/A
4:00 AM75 °FPassing clouds.6 mph89%29.80 "HgN/A
3:00 AM77 °FPassing clouds.7 mph83%29.80 "HgN/A
2:00 AM77 °FPassing clouds.6 mph83%29.80 "HgN/A
1:30 AM77 °FPassing clouds.6 mph83%29.80 "HgN/A
1:00 AM77 °FPassing clouds.6 mph83%29.83 "HgN/A
Weather by CustomWeather, © 2016

See weather overviewHow to use our weather pages